Location: Lombard
(41.8800°N, 88.0080°W)
Time: 05:47:55
(UTC-05:00)

Vanguard 2 Rocket - Pass Details

Date: 22 February 2024
Orbit: 555 x 3307 km, 32.9° (Epoch: 12 April)

Event Time Altitude Azimuth Distance (km) Brightness Sun altitude
Rises 12:38:29 0° 194° (SSW) 4,001 11.2 37.4°
Reaches altitude 10° 12:41:48 10° 177° (S) 3,424 11.1 37.3°
Maximum altitude 12:47:55 20° 134° (SE) 3,377 10.4 37.0°
Drops below altitude 10° 12:56:24 10° 95° (E) 4,968 10.6 36.7°
Sets 13:02:41 0° 82° (E) 6,495 11.0 36.3°
